Weather in Chengdu

China     30°39′51″N   104°04′31″E
temp.,
°C
wind,
m/s
gust,
m/s
humid.,
%
clouds,
%
prec.,
mm/h
press.,
hPa
HPBL,
m
2 august, mon
mon223:00+28wsw11700 0.0 100017
02:00+26wnw22750 0.0 100162
05:00+25wnw22570 0.0 100138
08:00+26nw22520 0.0 1002114
11:00+33wsw11440 0.0 1001636
14:00+36ssw22390 0.0 9991958
17:00+36sw33400 0.0 9981905
20:00+30sw12580 0.0 99837
3 august, tue
tue323:00+28wnw11641 0.0 100126
02:00+26wnw24635 0.0 100179
05:00+25nw11570 0.0 100024
08:00+26nnw23520 0.0 1002142
11:00+32ne21480 0.0 1002760
14:00+36ne134211 0.0 10002127
17:00+34sse125298 0.0 10001415
20:00+28nnw35701 1.1 1002124
4 august, wed
wed423:00+26nnw24780 0.4 100472
02:00+25wnw11760 0.5 100323
05:00+23w1285100 1.4 100425
08:00+26nw22750 1.5 1005109
11:00+33ne11490 0.1 1004831
14:00+34ese224683 0.1 10012038
17:00+33ese125488 0.1 1000661
20:00+25nnw258832 3.1 1002102
5 august, thu
thu523:00+25nnw22895 4.8 100340
02:00+24nw228715 4.8 100237
05:00+24wnw228699 0.1 100122
08:00+25wsw12799 0.3 1002104
11:00+31sw115754 0.0 1001678
14:00+34ene225076 0.7 9991920
17:00+27w3479100 2.5 99998
20:00+25nw368994 4.9 1000144
6 august, fri
fri623:00+24nne5119597 3.6 1002306
02:00+23ne1395100 8.2 100190
05:00+24wsw229198 0.9 100031
08:00+24nw118899 1.0 100277
11:00+26nne348097 0.1 1002448
14:00+26n347897 0.1 1002440
17:00+24n2483100 0.0 1001176
20:00+24n1181100 0.0 100232